Location: Bratislava
(0.0000°N, 17.1167°E)
Time: 04:12:01
(UTC+01:00)

Meteor 1-11 - Pass Details

Date: 24 January 2021
Orbit: 840 x 887 km, 81.2° (Epoch: 06 March)

Event Time Altitude Azimuth Distance (km) Brightness Sun altitude
Rises 18:19:30 0° 186° (S) 3,487 7.8 -3.7°
Reaches altitude 10° 18:21:57 10° 186° (S) 2,542 7.1 -4.3°
Maximum altitude 18:27:45 88° 272° (W) 881 4.4 -5.7°
Drops below altitude 10° 18:33:28 10° 4° (N) 2,507 6.4 -7.0°
Sets 18:35:53 0° 5° (N) 3,435 7.1 -7.6°
